RH
47 49 49 46 46 51 53 54 55 55 58 60 59 57 57 57 56 62 68 66 57 58 56 56 56 61 45 36 35 33 34 34 39 36 34 38 58 53 47 48 42 45 32
57 57 51 49 48 45 50 52 53 60 59 60 59 62 60 57 69 61 58 56 60 58 54 55 52 40 61 65 42 61 48 53 43 67 52 42 52 52 52 60 40 30 33
58 51 50 62 51 49 48 49 52 57 59 52 58 60 62 58 59 62 61 59 58 59 61 57 52 52 60 57 60 53 43 43 54 46 50 37 38 36 44 52 53 49 27
79 82 68 66 53 49 52 51 50 56 59 58 57 57 56 56 55 56 57 57 56 50 50 51 54 53 58 61 57 67 60 62 54 47 43 38 35 53 55 40 38 33 35
87 90 87 77 73 60 62 59 55 55 56 55 55 55 55 53 60 73 55 54 57 54 51 51 51 60 83 81 55 75 79 66 51 51 44 41 38 48 50 41 41 40 47
87 89 88 82 88 78 81 83 70 59 60 58 55 54 56 87 97 98 97 57 53 60 58 55 49 74 70 89 92 93 91 81 82 77 56 56 74 61 52 52 57 57 60
79 85 94 92 95 95 92 80 78 76 68 73 74 84 84 81 90 91 96 67 61 66 74 75 68 72 72 67 79 93 95 96 96 90 82 75 81 86 89 85 81 73 67
86 87 92 93 96 98 98 98 97 92 85 89 83 79 70 66 86 88 92 80 88 81 78 76 76 70 71 72 67 62 61 60 68 74 78 78 78 74 78 75 83 88 68
96 96 92 92 89 84 92 97 96 96 97 97 88 76 69 68 82 84 85 66 71 71 61 60 58 59 92 93 61 63 64 62 75 85 84 84 84 86 87 70 68 94 92
88 89 92 89 85 82 78 81 87 83 78 72 72 72 74 62 80 77 74 45 57 52 64 62 85 72 89 91 68 60 60 54 55 57 56 59 79 75 90 85 94 88 82
92 84 79 76 81 82 84 88 82 80 80 76 77 78 71 69 62 78 77 52 50 49 40 43 49 82 86 88 93 59 59 71 65 56 41 40 56 50 55 61 65 57 55
86 86 83 78 62 65 83 82 79 78 82 84 79 60 56 57 71 72 73 72 69 61 62 42 50 79 83 85 74 82 82 80 42 37 37 39 40 40 40 46 62 60 50
86 86 84 82 73 75 79 81 74 80 67 60 51 47 48 43 47 70 67 64 63 61 52 58 76 78 79 67 78 75 80 40 44 44 41 41 38 37 53 50 52 62 58
82 81 79 77 70 55 44 43 46 45 47 50 50 48 45 40 35 34 33 36 51 47 58 45 52 65 67 69 56 45 41 45 44 45 52 48 41 40 37 36 38 38 38
65 55 54 51 50 60 56 52 45 54 59 41 41 40 43 35 44 67 66 43 42 53 68 39 44 44 42 42 43 45 44 44 46 45 41 41 40 39 38 38 39 37 39
43 37 33 36 38 41 43 44 79 76 80 82 82 56 40 70 79 84 86 86 84 85 41 35 38 37 38 38 39 44 48 52 47 46 43 42 43 41 41 41 39 40 42
39 43 28 32 28 34 33 32 34 53 78 80 81 79 75 79 77 80 79 80 76 71 29 37 38 36 39 39 36 37 39 41 54 44 50 48 50 49 51 46 42 41 42
44 59 28 26 25 27 28 28 26 31 33 36 71 62 74 74 73 77 80 76 33 36 28 31 32 34 35 38 38 38 40 40 40 41 44 44 45 47 47 49 48 50 49
41 29 28 24 25 29 26 25 23 26 28 31 37 62 66 72 73 78 75 32 30 29 30 32 34 34 37 40 41 42 46 40 41 42 41 42 43 43 50 49 48 62 61
43 55 42 26 27 26 25 24 24 26 27 27 26 26 30 46 36 33 35 35 32 30 32 34 36 38 41 45 45 45 43 42 42 41 42 43 43 45 45 47 47 50 52
29 34 49 31 26 24 25 24 24 24 25 28 26 36 74 37 28 30 29 32 32 32 37 38 42 42 40 43 46 44 40 40 42 45 45 47 49 51 51 50 48 48 48
28 31 29 27 25 29 31 26 24 24 24 25 25 34 63 37 25 28 32 31 31 36 34 42 40 40 40 46 47 45 45 45 46 49 52 55 56 54 53 53 52 51 51
25 26 29 28 27 38 31 26 25 25 24 25 24 26 30 27 26 28 31 30 33 34 35 37 39 39 40 40 43 47 50 51 53 57 63 67 65 62 59 60 59 60 60
30 28 28 29 31 29 30 30 28 36 27 25 27 28 30 29 29 30 32 30 32 32 33 35 36 38 41 41 39 39 41 47 54 57 62 68 71 75 72 69 69 68 67
39 37 32 32 31 32 32 30 30 30 29 30 28 28 28 30 32 31 30 29 31 33 34 34 34 36 38 42 45 44 85 90 71 81 70 71 72 71 68 70 72 74 78
45 46 60 46 46 42 34 33 32 31 31 31 32 33 33 33 32 32 33 34 34 34 36 37 36 41 43 40 44 80 90 89 75 94 75 68 70 71 69 74 76 80 86
Wind_Speed
12 11 10 10 9 8 6 6 3 3 2 4 6 6 6 8 6 4 8 3 6 6 7 6 5 6 7 9 8 6 6 7 8 8 10 9 8 6 6 7 11 12 7
6 10 12 10 9 9 8 7 5 5 7 7 6 6 8 9 7 7 7 5 5 6 8 6 6 6 6 7 7 7 6 7 7 7 9 9 7 5 5 6 8 9 9
10 9 11 9 12 10 9 8 6 7 7 8 6 7 8 8 7 8 8 7 5 9 6 5 6 6 3 8 7 7 8 5 4 8 9 8 8 8 5 7 6 6 10
4 5 8 9 12 11 10 9 9 8 7 8 7 8 7 8 7 9 9 8 7 7 6 6 7 6 6 5 7 6 7 8 7 8 9 8 8 5 6 8 9 8 9
4 4 6 9 11 8 8 7 9 10 9 8 8 8 7 9 3 9 4 8 8 7 7 5 9 6 4 1 6 7 8 7 9 9 9 9 9 11 9 9 9 9 9
6 6 4 8 7 9 5 6 8 7 5 6 8 7 6 8 11 10 9 8 4 7 6 6 4 11 4 4 4 5 5 8 8 8 11 10 10 9 10 10 10 11 11
8 7 7 6 6 7 7 1 6 3 3 3 3 8 7 9 15 12 9 8 6 3 4 4 4 7 10 9 3 9 10 11 11 8 11 11 11 9 9 10 10 11 12
9 9 8 7 6 5 6 5 7 5 7 7 7 7 8 9 14 12 11 8 6 6 5 5 5 7 9 9 11 9 9 8 6 4 7 9 9 10 10 11 11 11 10
8 6 6 6 7 8 7 4 2 5 8 6 6 8 8 11 16 16 11 6 6 9 9 10 8 8 11 13 8 7 8 8 1 2 5 10 13 14 13 8 7 7 8
6 6 5 5 5 5 7 7 5 8 9 9 8 8 9 11 19 20 17 7 3 6 9 9 13 9 7 8 8 9 9 10 11 11 10 9 11 6 9 5 7 7 6
7 4 4 5 5 6 6 8 9 8 7 8 8 7 9 9 13 15 17 10 8 9 3 3 8 10 10 11 6 6 7 10 14 12 7 7 6 6 2 6 9 9 10
7 6 6 4 3 5 8 8 9 8 7 6 6 7 7 8 11 10 11 11 11 8 7 6 8 11 11 9 9 10 12 10 9 8 8 7 8 9 9 9 8 7 8
6 5 3 4 5 5 7 6 6 6 6 6 5 5 5 6 5 5 7 8 10 5 5 6 12 10 15 9 5 12 10 7 9 9 10 9 9 9 9 8 8 9 10
4 5 4 4 4 5 5 4 4 2 4 3 3 3 3 3 5 7 6 5 6 4 7 4 6 8 9 7 8 7 9 9 8 7 6 6 7 8 9 10 10 10 11
6 6 7 7 6 8 11 10 6 9 8 2 5 6 6 4 6 6 5 5 6 6 11 1 5 5 7 7 8 10 10 10 10 10 9 10 10 10 9 11 10 11 10
6 6 5 7 7 7 7 8 14 11 13 14 13 9 7 8 2 4 7 9 10 9 1 6 7 7 6 6 6 7 7 8 9 8 9 9 9 9 9 10 10 11 11
4 4 4 3 6 8 7 7 7 5 9 10 10 10 11 6 4 5 8 10 13 8 2 4 4 4 4 5 6 7 8 8 8 8 9 10 11 12 12 11 11 10 11
5 7 3 3 4 5 6 7 7 7 7 6 3 2 3 3 6 7 6 7 2 3 5 5 5 6 6 7 7 7 7 7 8 9 8 8 9 10 10 11 11 12 12
5 3 4 2 2 1 3 3 4 4 5 7 7 4 7 8 7 10 11 4 4 5 4 5 5 5 6 6 7 7 8 8 8 9 9 10 10 10 9 9 10 12 14
4 9 4 1 2 4 4 3 4 4 4 4 4 3 7 6 5 4 3 3 4 4 4 4 4 5 5 5 6 7 7 8 9 9 10 10 10 11 12 13 13 13 13
6 6 5 4 5 5 4 5 6 5 6 5 5 4 7 7 2 3 2 3 3 3 4 4 4 4 4 5 6 6 7 7 8 8 9 10 11 11 12 12 13 13 14
6 6 7 9 8 6 6 6 5 6 5 5 8 6 5 7 3 2 2 1 1 1 2 2 3 4 5 5 6 7 8 8 8 9 10 10 11 11 12 12 13 13 14
8 9 9 8 7 6 4 6 6 6 6 5 5 8 8 6 2 3 2 3 2 2 2 3 2 3 3 3 4 5 6 7 8 8 9 10 10 11 12 13 14 14 14
9 10 9 9 7 7 8 9 9 7 6 7 7 6 5 4 4 4 3 4 3 3 3 3 3 4 5 5 4 4 4 3 5 7 10 10 11 12 12 13 13 16 16
8 9 11 11 11 11 10 10 10 9 9 8 7 7 6 6 6 5 5 4 4 4 5 4 4 5 6 6 8 8 11 5 6 8 9 11 13 17 14 11 13 13 17
11 10 3 5 6 7 10 11 11 10 10 10 10 8 7 6 6 5 5 5 5 6 4 5 5 6 7 8 6 7 2 5 9 6 10 11 12 11 11 13 18 14 15
Wind_Direction
193 184 186 194 191 186 198 225 222 321 192 214 198 215 209 212 218 242 283 276 209 247 262 300 279 279 288 301 328 311 298 291 299 323 334 317 333 282 326 313 309 298 329
202 186 190 203 197 188 200 212 183 190 186 208 208 216 225 237 206 214 232 300 245 271 255 250 267 262 214 233 261 255 296 311 288 292 270 281 295 281 264 268 283 312 324
206 197 224 192 192 207 197 204 189 212 188 215 207 225 220 221 220 212 236 236 228 233 249 270 249 263 257 294 311 324 308 310 305 303 327 286 283 283 270 272 281 327 302
36 315 252 208 216 214 199 204 194 216 222 230 206 219 237 233 197 208 212 230 232 244 235 236 269 275 281 273 284 307 277 307 284 268 268 296 303 353 9 346 309 317 350
182 277 251 242 244 233 184 211 213 204 210 231 210 223 207 243 36 321 233 210 225 250 249 252 236 264 77 56 302 326 330 284 307 316 318 321 322 349 331 308 313 340 316
177 195 199 227 233 206 193 189 205 196 210 221 226 223 221 65 5 342 338 286 259 247 295 300 268 33 342 261 299 294 290 285 293 302 307 314 312 323 314 325 314 326 312
146 146 119 101 83 66 46 111 151 138 161 126 86 76 69 37 5 2 342 283 294 295 339 336 316 41 5 341 299 243 244 235 240 288 293 294 315 328 322 315 312 309 304
137 161 127 136 107 64 65 13 20 356 61 85 85 73 60 47 7 6 350 89 89 76 75 74 66 50 30 356 325 316 327 315 290 253 283 302 309 322 308 297 290 286 285
100 89 113 168 160 154 144 147 81 48 71 73 82 77 66 37 11 15 349 127 112 101 71 38 50 51 8 354 333 347 336 328 82 146 272 274 269 269 261 292 320 336 320
77 98 109 115 113 129 155 165 123 112 107 97 84 84 70 52 21 25 9 28 100 123 130 105 68 40 4 17 357 3 349 350 329 316 305 275 244 280 293 286 322 327 340
37 43 78 116 143 146 156 113 105 105 112 110 105 88 68 44 40 29 25 45 13 337 27 106 65 18 354 339 341 359 326 316 307 298 310 347 12 351 22 24 357 335 327
81 51 28 74 111 118 89 98 110 120 111 119 144 148 116 98 37 46 44 43 19 354 13 4 353 345 322 309 319 333 309 302 290 340 337 348 354 351 354 340 313 340 326
108 100 77 63 85 97 106 122 133 193 166 159 162 123 96 61 49 42 54 42 28 360 345 301 282 298 284 283 256 287 295 335 13 349 352 351 343 338 319 325 331 335 317
128 129 155 137 111 118 138 148 124 108 150 160 141 149 138 101 36 21 17 17 3 333 350 319 324 283 273 306 307 5 2 16 350 351 354 335 325 338 335 341 338 339 323
159 149 149 142 107 75 59 23 67 52 17 6 22 33 347 78 51 353 339 357 351 359 317 84 34 18 24 25 14 4 13 5 13 359 337 341 343 345 339 345 335 321 329
157 171 148 133 150 126 115 92 55 53 52 56 46 50 84 77 68 335 316 312 308 304 261 27 35 22 23 14 26 10 15 18 2 337 348 338 334 329 340 326 333 330 331
78 91 138 200 144 145 144 139 126 95 63 56 64 60 54 34 354 333 312 319 287 291 135 69 58 57 51 15 14 15 1 7 335 2 353 342 343 341 343 336 331 325 321
75 14 210 143 171 162 162 152 151 156 144 121 193 137 139 294 301 298 294 282 235 87 38 41 31 25 22 15 10 1 4 348 360 343 337 330 345 339 332 333 327 328 324
142 151 297 146 150 115 160 170 165 145 141 139 144 199 183 224 274 308 323 27 49 61 44 41 28 20 23 10 8 358 349 356 341 343 344 343 338 332 327 318 309 314 311
94 40 343 249 138 212 179 196 179 180 168 162 154 107 159 158 197 132 91 53 52 50 36 32 30 22 23 11 2 355 345 345 351 346 345 338 339 338 329 327 323 319 314
170 168 201 274 231 215 200 187 202 198 183 187 123 62 356 303 122 112 74 85 44 32 34 23 18 11 3 6 354 339 341 344 345 344 339 338 339 329 323 316 313 312 308
187 180 200 227 211 191 212 216 201 224 202 191 145 146 219 259 165 143 134 196 59 70 39 20 351 354 2 354 345 343 340 339 343 343 338 334 325 315 312 309 309 310 308
206 197 198 224 219 199 222 234 225 224 217 212 218 162 188 220 185 194 173 227 211 244 225 246 281 302 320 320 336 325 322 326 332 333 323 311 305 303 307 307 304 303 301
211 219 220 212 224 222 214 222 227 222 249 211 212 209 222 218 228 195 234 240 239 248 255 262 288 297 288 293 297 275 274 323 317 305 308 305 300 293 291 292 290 292 295
254 221 221 217 212 205 230 225 224 230 214 231 252 233 223 212 219 227 231 232 235 247 258 266 272 296 295 317 300 290 92 90 307 312 286 292 294 295 293 289 288 286 283
224 237 286 265 232 228 214 227 227 233 225 219 217 227 236 244 239 240 236 244 250 256 270 281 298 311 306 294 338 72 19 294 285 290 305 297 290 285 294 292 292 287 283